Year,Month,Day,Hour,Minute,Value (Times are PST for temperature in C)
2020,08,29,00,00,14.50
2020,08,29,00,01,14.50
2020,08,29,00,02,14.40
2020,08,29,00,03,14.40
2020,08,29,00,04,14.40
2020,08,29,00,05,14.30
2020,08,29,00,06,14.30
2020,08,29,00,07,14.30
2020,08,29,00,08,14.30
2020,08,29,00,09,14.20
2020,08,29,00,10,14.20
2020,08,29,00,11,14.20
2020,08,29,00,12,14.20
2020,08,29,00,13,14.20
2020,08,29,00,14,14.20
2020,08,29,00,15,14.20
2020,08,29,00,16,14.10
2020,08,29,00,17,14.10
2020,08,29,00,18,14.10
2020,08,29,00,19,14.10
2020,08,29,00,20,14.10
2020,08,29,00,21,14.10
2020,08,29,00,22,14.10
2020,08,29,00,23,14.10
2020,08,29,00,24,14.10
2020,08,29,00,25,14.10
2020,08,29,00,26,14.00
2020,08,29,00,27,14.00
2020,08,29,00,28,14.00
2020,08,29,00,29,14.00
2020,08,29,00,30,13.90
2020,08,29,00,31,13.90
2020,08,29,00,32,13.90
2020,08,29,00,33,13.90
2020,08,29,00,34,13.90
2020,08,29,00,35,13.90
2020,08,29,00,36,13.90
2020,08,29,00,37,13.90
2020,08,29,00,38,13.80
2020,08,29,00,39,13.90
2020,08,29,00,40,13.90
2020,08,29,00,41,13.90
2020,08,29,00,42,13.80
2020,08,29,00,43,13.80
2020,08,29,00,44,13.80
2020,08,29,00,45,13.80
2020,08,29,00,46,13.80
2020,08,29,00,47,13.80
2020,08,29,00,48,13.80
2020,08,29,00,49,13.80
2020,08,29,00,50,13.80
2020,08,29,00,51,13.80
2020,08,29,00,52,13.80
2020,08,29,00,53,13.80
2020,08,29,00,54,13.70
2020,08,29,00,55,13.70
2020,08,29,00,56,13.70
2020,08,29,00,57,13.70
2020,08,29,00,58,13.70
2020,08,29,00,59,13.70
2020,08,29,01,00,13.60
2020,08,29,01,01,13.60
2020,08,29,01,02,13.60
2020,08,29,01,03,13.60
2020,08,29,01,04,13.50
2020,08,29,01,05,13.50
2020,08,29,01,06,13.50
2020,08,29,01,07,13.50
2020,08,29,01,08,13.50
2020,08,29,01,09,13.50
2020,08,29,01,10,13.50
2020,08,29,01,11,13.40
2020,08,29,01,12,13.40
2020,08,29,01,13,13.40
2020,08,29,01,14,13.40
2020,08,29,01,15,13.40
2020,08,29,01,16,13.40
2020,08,29,01,17,13.40
2020,08,29,01,18,13.40
2020,08,29,01,19,13.40
2020,08,29,01,20,13.40
2020,08,29,01,21,13.30
2020,08,29,01,22,13.30
2020,08,29,01,23,13.30
2020,08,29,01,24,13.30
2020,08,29,01,25,13.30
2020,08,29,01,26,13.30
2020,08,29,01,27,13.30
2020,08,29,01,28,13.20
2020,08,29,01,29,13.20
2020,08,29,01,30,13.20
2020,08,29,01,31,13.20
2020,08,29,01,32,13.20
2020,08,29,01,33,13.20
2020,08,29,01,34,13.20
2020,08,29,01,35,13.20
2020,08,29,01,36,13.20
2020,08,29,01,37,13.10
2020,08,29,01,38,13.20
2020,08,29,01,39,13.10
2020,08,29,01,40,13.10
2020,08,29,01,41,13.10
2020,08,29,01,42,13.10
2020,08,29,01,43,13.10
2020,08,29,01,44,13.10
2020,08,29,01,45,13.10
2020,08,29,01,46,13.10
2020,08,29,01,47,13.10
2020,08,29,01,48,13.10
2020,08,29,01,49,13.10
2020,08,29,01,50,13.00
2020,08,29,01,51,13.00
2020,08,29,01,52,13.00
2020,08,29,01,53,13.00
2020,08,29,01,54,12.90
2020,08,29,01,55,12.90
2020,08,29,01,56,12.90
2020,08,29,01,57,12.90
2020,08,29,01,58,12.90
2020,08,29,01,59,12.90
2020,08,29,02,00,12.90
2020,08,29,02,01,12.90
2020,08,29,02,02,12.80
2020,08,29,02,03,12.80
2020,08,29,02,04,12.80
2020,08,29,02,05,12.80
2020,08,29,02,06,12.80
2020,08,29,02,07,12.80
2020,08,29,02,08,12.80
2020,08,29,02,09,12.70
2020,08,29,02,10,12.70
2020,08,29,02,11,12.70
2020,08,29,02,12,12.70
2020,08,29,02,13,12.70
2020,08,29,02,14,12.70
2020,08,29,02,15,12.60
2020,08,29,02,16,12.60
2020,08,29,02,17,12.60
2020,08,29,02,18,12.50
2020,08,29,02,19,12.50
2020,08,29,02,20,12.40
2020,08,29,02,21,12.40
2020,08,29,02,22,12.40
2020,08,29,02,23,12.40
2020,08,29,02,24,12.40
2020,08,29,02,25,12.40
2020,08,29,02,26,12.40
2020,08,29,02,27,12.30
2020,08,29,02,28,12.30
2020,08,29,02,29,12.30
2020,08,29,02,30,12.30
2020,08,29,02,31,12.30
2020,08,29,02,32,12.30
2020,08,29,02,33,12.30
2020,08,29,02,34,12.30
2020,08,29,02,35,12.30
2020,08,29,02,36,12.30
2020,08,29,02,37,12.30
2020,08,29,02,38,12.30
2020,08,29,02,39,12.30
2020,08,29,02,40,12.30
2020,08,29,02,41,12.30
2020,08,29,02,42,12.30
2020,08,29,02,43,12.30
2020,08,29,02,44,12.30
2020,08,29,02,45,12.30
2020,08,29,02,46,12.30
2020,08,29,02,47,12.30
2020,08,29,02,48,12.30
2020,08,29,02,49,12.20
2020,08,29,02,50,12.20
2020,08,29,02,51,12.20
2020,08,29,02,52,12.10
2020,08,29,02,53,12.10
2020,08,29,02,54,12.10
2020,08,29,02,55,12.00
2020,08,29,02,56,12.00
2020,08,29,02,57,12.00
2020,08,29,02,58,11.90
2020,08,29,02,59,11.90
2020,08,29,03,00,11.90
2020,08,29,03,01,11.80
2020,08,29,03,02,11.80
2020,08,29,03,03,11.80
2020,08,29,03,04,11.80
2020,08,29,03,05,11.80
2020,08,29,03,06,11.80
2020,08,29,03,07,11.80
2020,08,29,03,08,11.80
2020,08,29,03,09,11.90
2020,08,29,03,10,11.90
2020,08,29,03,11,11.90
2020,08,29,03,12,11.90
2020,08,29,03,13,12.00
2020,08,29,03,14,12.00
2020,08,29,03,15,11.90
2020,08,29,03,16,11.90
2020,08,29,03,17,11.90
2020,08,29,03,18,11.90
2020,08,29,03,19,11.90
2020,08,29,03,20,11.90
2020,08,29,03,21,12.00
2020,08,29,03,22,12.00
2020,08,29,03,23,12.00
2020,08,29,03,24,12.00
2020,08,29,03,25,12.00
2020,08,29,03,26,12.00
2020,08,29,03,27,12.00
2020,08,29,03,28,12.00
2020,08,29,03,29,12.00
2020,08,29,03,30,12.00
2020,08,29,03,31,12.00
2020,08,29,03,32,12.00
2020,08,29,03,33,12.00
2020,08,29,03,34,12.00
2020,08,29,03,35,11.90
2020,08,29,03,36,11.90
2020,08,29,03,37,11.90
2020,08,29,03,38,11.90
2020,08,29,03,39,11.90
2020,08,29,03,40,11.90
2020,08,29,03,41,11.90
2020,08,29,03,42,11.90
2020,08,29,03,43,11.90
2020,08,29,03,44,11.90
2020,08,29,03,45,11.90
2020,08,29,03,46,11.90
2020,08,29,03,47,11.90
2020,08,29,03,48,11.90
2020,08,29,03,49,11.90
2020,08,29,03,50,11.90
2020,08,29,03,51,11.90
2020,08,29,03,52,11.90
2020,08,29,03,53,11.90
2020,08,29,03,54,11.90
2020,08,29,03,55,11.80
2020,08,29,03,56,11.80
2020,08,29,03,57,11.80
2020,08,29,03,58,11.80
2020,08,29,03,59,11.80
2020,08,29,04,00,11.80
2020,08,29,04,01,11.80
2020,08,29,04,02,11.80
2020,08,29,04,03,11.80
2020,08,29,04,04,11.70
2020,08,29,04,05,11.70
2020,08,29,04,06,11.70
2020,08,29,04,07,11.70
2020,08,29,04,08,11.70
2020,08,29,04,09,11.70
2020,08,29,04,10,11.70
2020,08,29,04,11,11.70
2020,08,29,04,12,11.70
2020,08,29,04,13,11.70
2020,08,29,04,14,11.80
2020,08,29,04,15,11.80
2020,08,29,04,16,11.70
2020,08,29,04,17,11.70
2020,08,29,04,18,11.70
2020,08,29,04,19,11.70
2020,08,29,04,20,11.70
2020,08,29,04,21,11.70
2020,08,29,04,22,11.70
2020,08,29,04,23,11.70
2020,08,29,04,24,11.70
2020,08,29,04,25,11.70
2020,08,29,04,26,11.70
2020,08,29,04,27,11.70
2020,08,29,04,28,11.70
2020,08,29,04,29,11.70
2020,08,29,04,30,11.70
2020,08,29,04,31,11.70
2020,08,29,04,32,11.70
2020,08,29,04,33,11.70
2020,08,29,04,34,11.70
2020,08,29,04,35,11.60
2020,08,29,04,36,11.60
2020,08,29,04,37,11.60
2020,08,29,04,38,11.60
2020,08,29,04,39,11.50
2020,08,29,04,40,11.50
2020,08,29,04,41,11.40
2020,08,29,04,42,11.40
2020,08,29,04,43,11.30
2020,08,29,04,44,11.20
2020,08,29,04,45,11.20
2020,08,29,04,46,11.10
2020,08,29,04,47,11.00
2020,08,29,04,48,11.00
2020,08,29,04,49,10.90
2020,08,29,04,50,10.80
2020,08,29,04,51,10.70
2020,08,29,04,52,10.60
2020,08,29,04,53,10.60
2020,08,29,04,54,10.50
2020,08,29,04,55,10.50
2020,08,29,04,56,10.40
2020,08,29,04,57,10.40
2020,08,29,04,58,10.40
2020,08,29,04,59,10.30
2020,08,29,05,00,10.30
2020,08,29,05,01,10.30
2020,08,29,05,02,10.30
2020,08,29,05,03,10.30
2020,08,29,05,04,10.30
2020,08,29,05,05,10.40
2020,08,29,05,06,10.40
2020,08,29,05,07,10.50
2020,08,29,05,08,10.50
2020,08,29,05,09,10.60
2020,08,29,05,10,10.70
2020,08,29,05,11,10.70
2020,08,29,05,12,10.70
2020,08,29,05,13,10.70
2020,08,29,05,14,10.80
2020,08,29,05,15,10.80
2020,08,29,05,16,10.80
2020,08,29,05,17,10.80
2020,08,29,05,18,10.90
2020,08,29,05,19,10.90
2020,08,29,05,20,10.90
2020,08,29,05,21,10.90
2020,08,29,05,22,11.00
2020,08,29,05,23,11.00
2020,08,29,05,24,11.00
2020,08,29,05,25,11.00
2020,08,29,05,26,11.00
2020,08,29,05,27,11.00
2020,08,29,05,28,11.00
2020,08,29,05,29,11.00
2020,08,29,05,30,11.00
2020,08,29,05,31,11.00
2020,08,29,05,32,11.00
2020,08,29,05,33,11.00
2020,08,29,05,34,11.00
2020,08,29,05,35,10.90
2020,08,29,05,36,10.90
2020,08,29,05,37,10.90
2020,08,29,05,38,10.90
2020,08,29,05,39,10.90
2020,08,29,05,40,10.90
2020,08,29,05,41,10.80
2020,08,29,05,42,10.80
2020,08,29,05,43,10.80
2020,08,29,05,44,10.80
2020,08,29,05,45,10.80
2020,08,29,05,46,10.80
2020,08,29,05,47,10.80
2020,08,29,05,48,10.60
2020,08,29,05,49,10.50
2020,08,29,05,50,10.50
2020,08,29,05,51,10.40
2020,08,29,05,52,10.30
2020,08,29,05,53,10.20
2020,08,29,05,54,10.20
2020,08,29,05,55,10.10
2020,08,29,05,56,10.10
2020,08,29,05,57,10.00
2020,08,29,05,58,10.00
2020,08,29,05,59,9.90
2020,08,29,06,00,9.90
2020,08,29,06,01,9.80
2020,08,29,06,02,9.80
2020,08,29,06,03,9.70
2020,08,29,06,04,9.70
2020,08,29,06,05,9.50
2020,08,29,06,06,9.40
2020,08,29,06,07,9.30
2020,08,29,06,08,9.20
2020,08,29,06,09,9.20
2020,08,29,06,10,9.10
2020,08,29,06,11,9.10
2020,08,29,06,12,9.10
2020,08,29,06,13,9.00
2020,08,29,06,14,8.90
2020,08,29,06,15,8.90
2020,08,29,06,16,8.90
2020,08,29,06,17,8.80
2020,08,29,06,18,8.80
2020,08,29,06,19,8.70
2020,08,29,06,20,8.70
2020,08,29,06,21,8.70
2020,08,29,06,22,8.70
2020,08,29,06,23,8.70
2020,08,29,06,24,8.60
2020,08,29,06,25,8.60
2020,08,29,06,26,8.60
2020,08,29,06,27,8.60
2020,08,29,06,28,8.50
2020,08,29,06,29,8.50
2020,08,29,06,30,8.40
2020,08,29,06,31,8.40
2020,08,29,06,32,8.40
2020,08,29,06,33,8.40
2020,08,29,06,34,8.30
2020,08,29,06,35,8.30
2020,08,29,06,36,8.30
2020,08,29,06,37,8.30
2020,08,29,06,38,8.30
2020,08,29,06,39,8.30
2020,08,29,06,40,8.30
2020,08,29,06,41,8.20
2020,08,29,06,42,8.20
2020,08,29,06,43,8.20
2020,08,29,06,44,8.20
2020,08,29,06,45,8.20
2020,08,29,06,46,8.20
2020,08,29,06,47,8.20
2020,08,29,06,48,8.20
2020,08,29,06,49,8.20
2020,08,29,06,50,8.20
2020,08,29,06,51,8.20
2020,08,29,06,52,8.20
2020,08,29,06,53,8.20
2020,08,29,06,54,8.10
2020,08,29,06,55,8.10
2020,08,29,06,56,8.10
2020,08,29,06,57,8.10
2020,08,29,06,58,8.10
2020,08,29,06,59,8.00
2020,08,29,07,00,8.00
2020,08,29,07,01,8.00
2020,08,29,07,02,8.00
2020,08,29,07,03,8.00
2020,08,29,07,04,8.00
2020,08,29,07,05,8.00
2020,08,29,07,06,8.00
2020,08,29,07,07,8.00
2020,08,29,07,08,8.00
2020,08,29,07,09,8.00
2020,08,29,07,10,8.00
2020,08,29,07,11,8.00
2020,08,29,07,12,8.00
2020,08,29,07,13,8.00
2020,08,29,07,14,8.00
2020,08,29,07,15,8.00
2020,08,29,07,16,8.00
2020,08,29,07,17,8.00
2020,08,29,07,18,8.00
2020,08,29,07,19,8.00
2020,08,29,07,20,7.90
2020,08,29,07,21,7.90
2020,08,29,07,22,7.90
2020,08,29,07,23,7.90
2020,08,29,07,24,7.90
2020,08,29,07,25,7.90
2020,08,29,07,26,7.90
2020,08,29,07,27,7.90
2020,08,29,07,28,7.90
2020,08,29,07,29,7.90
2020,08,29,07,30,7.90
2020,08,29,07,31,7.90
2020,08,29,07,32,7.90
2020,08,29,07,33,7.90
2020,08,29,07,34,7.90
2020,08,29,07,35,7.90
2020,08,29,07,36,7.90
2020,08,29,07,37,7.90
2020,08,29,07,38,7.90
2020,08,29,07,39,7.90
2020,08,29,07,40,7.90
2020,08,29,07,41,7.90
2020,08,29,07,42,7.90
2020,08,29,07,43,7.90
2020,08,29,07,44,7.90
2020,08,29,07,45,7.90
2020,08,29,07,46,8.00
2020,08,29,07,47,7.90
2020,08,29,07,48,7.90
2020,08,29,07,49,7.90
2020,08,29,07,50,7.90
2020,08,29,07,51,7.90
2020,08,29,07,52,7.90
2020,08,29,07,53,7.90
2020,08,29,07,54,7.90
2020,08,29,07,55,7.90
2020,08,29,07,56,7.90
2020,08,29,07,57,7.90
2020,08,29,07,58,7.90
2020,08,29,07,59,8.00
2020,08,29,08,00,8.00
2020,08,29,08,01,8.10
2020,08,29,08,02,8.10
2020,08,29,08,03,8.20
2020,08,29,08,04,8.30
2020,08,29,08,05,8.40
2020,08,29,08,06,8.50
2020,08,29,08,07,8.60
2020,08,29,08,08,8.70
2020,08,29,08,09,8.80
2020,08,29,08,10,9.00
2020,08,29,08,11,9.00
2020,08,29,08,12,9.10
2020,08,29,08,13,9.10
2020,08,29,08,14,9.10
2020,08,29,08,15,9.20
2020,08,29,08,16,9.20
2020,08,29,08,17,9.30
2020,08,29,08,18,9.40
2020,08,29,08,19,9.40
2020,08,29,08,20,9.50
2020,08,29,08,21,9.60
2020,08,29,08,22,9.60
2020,08,29,08,23,9.70
2020,08,29,08,24,9.80
2020,08,29,08,25,9.90
2020,08,29,08,26,9.90
2020,08,29,08,27,9.90
2020,08,29,08,28,10.00
2020,08,29,08,29,10.00
2020,08,29,08,30,9.90
2020,08,29,08,31,9.90
2020,08,29,08,32,9.90
2020,08,29,08,33,9.90
2020,08,29,08,34,9.90
2020,08,29,08,35,9.90
2020,08,29,08,36,9.90
2020,08,29,08,37,10.00
2020,08,29,08,38,10.00
2020,08,29,08,39,10.10
2020,08,29,08,40,10.10
2020,08,29,08,41,10.20
2020,08,29,08,42,10.30
2020,08,29,08,43,10.30
2020,08,29,08,44,10.30
2020,08,29,08,45,10.30
2020,08,29,08,46,10.30
2020,08,29,08,47,10.40
2020,08,29,08,48,10.40
2020,08,29,08,49,10.30
2020,08,29,08,50,10.30
2020,08,29,08,51,10.30
2020,08,29,08,52,10.30
2020,08,29,08,53,10.30
2020,08,29,08,54,10.30
2020,08,29,08,55,10.30
2020,08,29,08,56,10.40
2020,08,29,08,57,10.40
2020,08,29,08,58,10.40
2020,08,29,08,59,10.50
2020,08,29,09,00,10.50
2020,08,29,09,01,10.60
2020,08,29,09,02,10.70
2020,08,29,09,03,10.70
2020,08,29,09,04,10.80
2020,08,29,09,05,10.90
2020,08,29,09,06,11.00
2020,08,29,09,07,11.10
2020,08,29,09,08,11.20
2020,08,29,09,09,11.20
2020,08,29,09,10,11.20
2020,08,29,09,11,11.30
2020,08,29,09,12,11.30
2020,08,29,09,13,11.30
2020,08,29,09,14,11.40
2020,08,29,09,15,11.50
2020,08,29,09,16,11.50
2020,08,29,09,17,11.50
2020,08,29,09,18,11.60
2020,08,29,09,19,11.70
2020,08,29,09,20,11.80
2020,08,29,09,21,11.90
2020,08,29,09,22,12.00
2020,08,29,09,23,12.10
2020,08,29,09,24,12.10
2020,08,29,09,25,12.10
2020,08,29,09,26,12.10
2020,08,29,09,27,12.20
2020,08,29,09,28,12.20
2020,08,29,09,29,12.20
2020,08,29,09,30,12.30
2020,08,29,09,31,12.40
2020,08,29,09,32,12.40
2020,08,29,09,33,12.50
2020,08,29,09,34,12.60
2020,08,29,09,35,12.60
2020,08,29,09,36,12.70
2020,08,29,09,37,12.70
2020,08,29,09,38,12.80
2020,08,29,09,39,12.80
2020,08,29,09,40,12.90
2020,08,29,09,41,12.90
2020,08,29,09,42,13.00
2020,08,29,09,43,13.00
2020,08,29,09,44,13.00
2020,08,29,09,45,13.10
2020,08,29,09,46,13.10
2020,08,29,09,47,13.10
2020,08,29,09,48,13.10
2020,08,29,09,49,13.20
2020,08,29,09,50,13.30
2020,08,29,09,51,13.40
2020,08,29,09,52,13.50
2020,08,29,09,53,13.50
2020,08,29,09,54,13.60
2020,08,29,09,55,13.70
2020,08,29,09,56,13.80
2020,08,29,09,57,13.90
2020,08,29,09,58,14.00
2020,08,29,09,59,14.10
2020,08,29,10,00,14.20
2020,08,29,10,01,14.30
2020,08,29,10,02,14.40
2020,08,29,10,03,14.50
2020,08,29,10,04,14.60
2020,08,29,10,05,14.70
2020,08,29,10,06,14.70
2020,08,29,10,07,14.80
2020,08,29,10,08,14.80
2020,08,29,10,09,14.90
2020,08,29,10,10,15.00
2020,08,29,10,11,15.00
2020,08,29,10,12,15.10
2020,08,29,10,13,15.10
2020,08,29,10,14,15.10
2020,08,29,10,15,15.20
2020,08,29,10,16,15.20
2020,08,29,10,17,15.20
2020,08,29,10,18,15.30
2020,08,29,10,19,15.30
2020,08,29,10,20,15.30
2020,08,29,10,21,15.40
2020,08,29,10,22,15.40
2020,08,29,10,23,15.50
2020,08,29,10,24,15.50
2020,08,29,10,25,15.60
2020,08,29,10,26,15.60
2020,08,29,10,27,15.60
2020,08,29,10,28,15.70
2020,08,29,10,29,15.70
2020,08,29,10,30,15.80
2020,08,29,10,31,15.80
2020,08,29,10,32,15.80
2020,08,29,10,33,15.80
2020,08,29,10,34,15.80
2020,08,29,10,35,15.80
2020,08,29,10,36,15.90
2020,08,29,10,37,15.90
2020,08,29,10,38,15.90
2020,08,29,10,39,15.90
2020,08,29,10,40,16.00
2020,08,29,10,41,16.00
2020,08,29,10,42,16.00
2020,08,29,10,43,16.00
2020,08,29,10,44,16.10
2020,08,29,10,45,16.10
2020,08,29,10,46,16.20
2020,08,29,10,47,16.30
2020,08,29,10,48,16.30
2020,08,29,10,49,16.30
2020,08,29,10,50,16.30
2020,08,29,10,51,16.30
2020,08,29,10,52,16.30
2020,08,29,10,53,16.40
2020,08,29,10,54,16.40
2020,08,29,10,55,16.40
2020,08,29,10,56,16.50
2020,08,29,10,57,16.50
2020,08,29,10,58,16.60
2020,08,29,10,59,16.60
2020,08,29,11,00,16.70
2020,08,29,11,01,16.70
2020,08,29,11,02,16.80
2020,08,29,11,03,16.80
2020,08,29,11,04,16.80
2020,08,29,11,05,16.80
2020,08,29,11,06,16.80
2020,08,29,11,07,16.80
2020,08,29,11,08,16.80
2020,08,29,11,09,16.80
2020,08,29,11,10,16.90
2020,08,29,11,11,16.90
2020,08,29,11,12,16.90
2020,08,29,11,13,16.90
2020,08,29,11,14,16.90
2020,08,29,11,15,17.00
2020,08,29,11,16,17.00
2020,08,29,11,17,17.10
2020,08,29,11,18,17.00
2020,08,29,11,19,17.00
2020,08,29,11,20,17.00
2020,08,29,11,21,17.00
2020,08,29,11,22,17.00
2020,08,29,11,23,17.00
2020,08,29,11,24,17.10
2020,08,29,11,25,17.10
2020,08,29,11,26,17.20
2020,08,29,11,27,17.20
2020,08,29,11,28,17.30
2020,08,29,11,29,17.30
2020,08,29,11,30,17.40
2020,08,29,11,31,17.40
2020,08,29,11,32,17.50
2020,08,29,11,33,17.50
2020,08,29,11,34,17.50
2020,08,29,11,35,17.60
2020,08,29,11,36,17.60
2020,08,29,11,37,17.60
2020,08,29,11,38,17.60
2020,08,29,11,39,17.60
2020,08,29,11,40,17.50
2020,08,29,11,41,17.50
2020,08,29,11,42,17.60
2020,08,29,11,43,17.60
2020,08,29,11,44,17.70
2020,08,29,11,45,17.80
2020,08,29,11,46,17.80
2020,08,29,11,47,17.80
2020,08,29,11,48,17.80
2020,08,29,11,49,17.90
2020,08,29,11,50,17.90
2020,08,29,11,51,18.00
2020,08,29,11,52,18.00
2020,08,29,11,53,18.10
2020,08,29,11,54,18.10
2020,08,29,11,55,18.10
2020,08,29,11,56,18.10
2020,08,29,11,57,18.10
2020,08,29,11,58,18.00
2020,08,29,11,59,18.00
2020,08,29,12,00,18.00
2020,08,29,12,01,18.00
2020,08,29,12,02,18.10
2020,08,29,12,03,18.10
2020,08,29,12,04,18.10
2020,08,29,12,05,18.10
2020,08,29,12,06,18.10
2020,08,29,12,07,18.10
2020,08,29,12,08,18.10
2020,08,29,12,09,18.20
2020,08,29,12,10,18.30
2020,08,29,12,11,18.30
2020,08,29,12,12,18.40
2020,08,29,12,13,18.40
2020,08,29,12,14,18.50
2020,08,29,12,15,18.50
2020,08,29,12,16,18.50
2020,08,29,12,17,18.50
2020,08,29,12,18,18.40
2020,08,29,12,19,18.40
2020,08,29,12,20,18.40
2020,08,29,12,21,18.40
2020,08,29,12,22,18.40
2020,08,29,12,23,18.50
2020,08,29,12,24,18.50
2020,08,29,12,25,18.60
2020,08,29,12,26,18.70
2020,08,29,12,27,18.80
2020,08,29,12,28,18.80
2020,08,29,12,29,18.70
2020,08,29,12,30,18.70
2020,08,29,12,31,18.80
2020,08,29,12,32,18.80
2020,08,29,12,33,18.80
2020,08,29,12,34,18.80
2020,08,29,12,35,18.80
2020,08,29,12,36,18.90
2020,08,29,12,37,19.00
2020,08,29,12,38,19.00
2020,08,29,12,39,19.00
2020,08,29,12,40,19.00
2020,08,29,12,41,18.90
2020,08,29,12,42,18.90
2020,08,29,12,43,18.90
2020,08,29,12,44,18.90
2020,08,29,12,45,18.90
2020,08,29,12,46,18.90
2020,08,29,12,47,18.90
2020,08,29,12,48,19.00
2020,08,29,12,49,19.00
2020,08,29,12,50,19.10
2020,08,29,12,51,19.10
2020,08,29,12,52,19.20
2020,08,29,12,53,19.20
2020,08,29,12,54,19.20
2020,08,29,12,55,19.20
2020,08,29,12,56,19.20
2020,08,29,12,57,19.30
2020,08,29,12,58,19.30
2020,08,29,12,59,19.30
2020,08,29,13,00,19.30
2020,08,29,13,01,19.30
2020,08,29,13,02,19.30
2020,08,29,13,03,19.30
2020,08,29,13,04,19.30
2020,08,29,13,05,19.30
2020,08,29,13,06,19.30
2020,08,29,13,07,19.30
2020,08,29,13,08,19.30
2020,08,29,13,09,19.30
2020,08,29,13,10,19.30
2020,08,29,13,11,19.30
2020,08,29,13,12,19.30
2020,08,29,13,13,19.40
2020,08,29,13,14,19.40
2020,08,29,13,15,19.50
2020,08,29,13,16,19.50
2020,08,29,13,17,19.50
2020,08,29,13,18,19.50
2020,08,29,13,19,19.60
2020,08,29,13,20,19.50
2020,08,29,13,21,19.50
2020,08,29,13,22,19.40
2020,08,29,13,23,19.50
2020,08,29,13,24,19.40
2020,08,29,13,25,19.50
2020,08,29,13,26,19.50
2020,08,29,13,27,19.50
2020,08,29,13,28,19.50
2020,08,29,13,29,19.60
2020,08,29,13,30,19.60
2020,08,29,13,31,19.60
2020,08,29,13,32,19.70
2020,08,29,13,33,19.70
2020,08,29,13,34,19.80
2020,08,29,13,35,19.80
2020,08,29,13,36,19.90
2020,08,29,13,37,19.80
2020,08,29,13,38,19.80
2020,08,29,13,39,19.80
2020,08,29,13,40,19.90
2020,08,29,13,41,20.00
2020,08,29,13,42,20.00
2020,08,29,13,43,20.00
2020,08,29,13,44,20.10
2020,08,29,13,45,20.10
2020,08,29,13,46,20.10
2020,08,29,13,47,20.20
2020,08,29,13,48,20.30
2020,08,29,13,49,20.30
2020,08,29,13,50,20.30
2020,08,29,13,51,20.30
2020,08,29,13,52,20.30
2020,08,29,13,53,20.30
2020,08,29,13,54,20.40
2020,08,29,13,55,20.50
2020,08,29,13,56,20.50
2020,08,29,13,57,20.60
2020,08,29,13,58,20.50
2020,08,29,13,59,20.50
2020,08,29,14,00,20.50
2020,08,29,14,01,20.60
2020,08,29,14,02,20.60
2020,08,29,14,03,20.60
2020,08,29,14,04,20.70
2020,08,29,14,05,20.70
2020,08,29,14,06,20.70
2020,08,29,14,07,20.70
2020,08,29,14,08,20.70
2020,08,29,14,09,20.70
2020,08,29,14,10,20.80
2020,08,29,14,11,20.80
2020,08,29,14,12,20.70
2020,08,29,14,13,20.80
2020,08,29,14,14,20.80
2020,08,29,14,15,20.80
2020,08,29,14,16,20.80
2020,08,29,14,17,20.70
2020,08,29,14,18,20.60
2020,08,29,14,19,20.60
2020,08,29,14,20,20.50
2020,08,29,14,21,20.50
2020,08,29,14,22,20.50
2020,08,29,14,23,20.40
2020,08,29,14,24,20.40
2020,08,29,14,25,20.50
2020,08,29,14,26,20.60
2020,08,29,14,27,20.60
2020,08,29,14,28,20.50
2020,08,29,14,29,20.50
2020,08,29,14,30,20.40
2020,08,29,14,31,20.40
2020,08,29,14,32,20.40
2020,08,29,14,33,20.30
2020,08,29,14,34,20.30
2020,08,29,14,35,20.30
2020,08,29,14,36,20.30
2020,08,29,14,37,20.30
2020,08,29,14,38,20.30
2020,08,29,14,39,20.30
2020,08,29,14,40,20.30
2020,08,29,14,41,20.30
2020,08,29,14,42,20.40
2020,08,29,14,43,20.50
2020,08,29,14,44,20.60
2020,08,29,14,45,20.70
2020,08,29,14,46,20.70
2020,08,29,14,47,20.80
2020,08,29,14,48,20.80
2020,08,29,14,49,20.90
2020,08,29,14,50,20.90
2020,08,29,14,51,20.90
2020,08,29,14,52,21.00
2020,08,29,14,53,21.00
2020,08,29,14,54,21.10
2020,08,29,14,55,21.00
2020,08,29,14,56,21.00
2020,08,29,14,57,21.00
2020,08,29,14,58,21.00
2020,08,29,14,59,21.00
2020,08,29,15,00,21.00
2020,08,29,15,01,21.00
2020,08,29,15,02,21.00
2020,08,29,15,03,21.00
2020,08,29,15,04,21.10
2020,08,29,15,05,21.00
2020,08,29,15,06,21.00
2020,08,29,15,07,21.00
2020,08,29,15,08,21.00
2020,08,29,15,09,21.10
2020,08,29,15,10,21.00
2020,08,29,15,11,21.00
2020,08,29,15,12,21.00
2020,08,29,15,13,21.10
2020,08,29,15,14,21.10
2020,08,29,15,15,21.10
2020,08,29,15,16,21.10
2020,08,29,15,17,21.10
2020,08,29,15,18,21.10
2020,08,29,15,19,21.00
2020,08,29,15,20,21.00
2020,08,29,15,21,21.00
2020,08,29,15,22,21.00
2020,08,29,15,23,21.00
2020,08,29,15,24,20.90
2020,08,29,15,25,20.90
2020,08,29,15,26,20.90
2020,08,29,15,27,20.90
2020,08,29,15,28,20.90
2020,08,29,15,29,20.90
2020,08,29,15,30,20.90
2020,08,29,15,31,21.00
2020,08,29,15,32,21.10
2020,08,29,15,33,21.20
2020,08,29,15,34,21.30
2020,08,29,15,35,21.30
2020,08,29,15,36,21.30
2020,08,29,15,37,21.30
2020,08,29,15,38,21.30
2020,08,29,15,39,21.30
2020,08,29,15,40,21.30
2020,08,29,15,41,21.30
2020,08,29,15,42,21.30
2020,08,29,15,43,21.30
2020,08,29,15,44,21.10
2020,08,29,15,45,21.00
2020,08,29,15,46,20.90
2020,08,29,15,47,20.90
2020,08,29,15,48,20.80
2020,08,29,15,49,20.80
2020,08,29,15,50,20.80
2020,08,29,15,51,20.80
2020,08,29,15,52,20.80
2020,08,29,15,53,20.90
2020,08,29,15,54,21.00
2020,08,29,15,55,21.00
2020,08,29,15,56,21.10
2020,08,29,15,57,21.10
2020,08,29,15,58,21.10
2020,08,29,15,59,21.10
2020,08,29,16,00,21.10
2020,08,29,16,01,21.10
2020,08,29,16,02,21.10
2020,08,29,16,03,21.10
2020,08,29,16,04,21.10
2020,08,29,16,05,21.10
2020,08,29,16,06,21.00
2020,08,29,16,07,21.00
2020,08,29,16,08,20.90
2020,08,29,16,09,20.90
2020,08,29,16,10,20.90
2020,08,29,16,11,20.90
2020,08,29,16,12,20.90
2020,08,29,16,13,20.90
2020,08,29,16,14,20.90
2020,08,29,16,15,20.80
2020,08,29,16,16,20.80
2020,08,29,16,17,20.80
2020,08,29,16,18,20.80
2020,08,29,16,19,20.90
2020,08,29,16,20,20.90
2020,08,29,16,21,21.00
2020,08,29,16,22,21.00
2020,08,29,16,23,21.00
2020,08,29,16,24,20.90
2020,08,29,16,25,20.90
2020,08,29,16,26,20.90
2020,08,29,16,27,20.90
2020,08,29,16,28,20.90
2020,08,29,16,29,20.90
2020,08,29,16,30,20.90
2020,08,29,16,31,20.90
2020,08,29,16,32,20.80
2020,08,29,16,33,20.80
2020,08,29,16,34,20.70
2020,08,29,16,35,20.70
2020,08,29,16,36,20.70
2020,08,29,16,37,20.60
2020,08,29,16,38,20.60
2020,08,29,16,39,20.50
2020,08,29,16,40,20.50
2020,08,29,16,41,20.50
2020,08,29,16,42,20.50
2020,08,29,16,43,20.60
2020,08,29,16,44,20.50
2020,08,29,16,45,20.50
2020,08,29,16,46,20.50
2020,08,29,16,47,20.50
2020,08,29,16,48,20.50
2020,08,29,16,49,20.50
2020,08,29,16,50,20.40
2020,08,29,16,51,20.50
2020,08,29,16,52,20.40
2020,08,29,16,53,20.40
2020,08,29,16,54,20.40
2020,08,29,16,55,20.40
2020,08,29,16,56,20.30
2020,08,29,16,57,20.30
2020,08,29,16,58,20.30
2020,08,29,16,59,20.30
2020,08,29,17,00,20.30
2020,08,29,17,01,20.30
2020,08,29,17,02,20.20
2020,08,29,17,03,20.20
2020,08,29,17,04,20.20
2020,08,29,17,05,20.20
2020,08,29,17,06,20.20
2020,08,29,17,07,20.20
2020,08,29,17,08,20.20
2020,08,29,17,09,20.30
2020,08,29,17,10,20.30
2020,08,29,17,11,20.30
2020,08,29,17,12,20.30
2020,08,29,17,13,20.20
2020,08,29,17,14,20.10
2020,08,29,17,15,20.10
2020,08,29,17,16,20.10
2020,08,29,17,17,20.10
2020,08,29,17,18,20.10
2020,08,29,17,19,20.10
2020,08,29,17,20,20.10
2020,08,29,17,21,20.20
2020,08,29,17,22,20.20
2020,08,29,17,23,20.20
2020,08,29,17,24,20.20
2020,08,29,17,25,20.20
2020,08,29,17,26,20.10